Regional Weather Roundup
Issued by NWS

Home | Current Version | Previous Version | Text Only | Print | Product List | Glossary On
Versions: 1 2 3 4 5 6 7 8 9 10 11 12 13 14 15 16 17 18 19 20 21 22 23 24 25 26 27 28 29 30 31 32 33 34 35 36 37 38 39 40 41 42 43 44 45 46 47 48 49 50
000
ASUS44 KOUN 270610
RWROK

WEATHER ROUNDUP FOR OKLAHOMA
NATIONAL WEATHER SERVICE NORMAN OK
100 AM CDT MON APR 27 2015

NOTE: "FAIR" INDICATES FEW OR NO CLOUDS BELOW 12,000 FEET WITH NO
      SIGNIFICANT WEATHER AND/OR OBSTRUCTIONS TO VISIBILITY.

OKZ001>007-009>012-014-015-017-270700-
NORTHWEST OKLAHOMA AND THE PANHANDLE

CITY           SKY/WX    TMP DP  RH WIND       PRES   REMARKS
GAGE           LGT RAIN  49  47  93 NE17      29.91F FOG
6HR MIN TEMP:  49; 6HR MAX TEMP:  55; 6HR PCP:  0.10;

GUYMON         CLOUDY    48  47  96 NE24G30   29.91S
ENID/WOODRING  CLOUDY    50  48  93 N16       29.89F
$$

OKZ016-021>023-033>039-044-045-270700-
SOUTHWEST OKLAHOMA

CITY           SKY/WX    TMP DP  RH WIND       PRES   REMARKS
LAWTON/REGL    CLOUDY    59  55  87 NE20G26   29.78R
6HR MIN TEMP:  59; 6HR MAX TEMP:  71; 6HR PCP:  0.13;

LAWTON/FT SILL CLOUDY    57  55  94 NE18G25   29.77R
FREDERICK      CLOUDY    59  56  89 NE18      29.75R
CLINTON        CLOUDY    52  50  93 NE22      29.84R
HOBART         CLOUDY    53  51  93 NE21G28   29.82R
ALTUS AFB      CLOUDY    56  56  99 NE25G33   29.79R
$$

OKZ018>020-024>031-270700-
CENTRAL OKLAHOMA

CITY           SKY/WX    TMP DP  RH WIND       PRES   REMARKS
OKLAHOMA CITY  CLOUDY    55  52  89 NE13      29.84R
6HR MIN TEMP:  54; 6HR MAX TEMP:  70; 6HR PCP:  0.25;

OKC/WILEY POST CLOUDY    54  51  90 NE14      29.85R
OKC/TINKER AFB CLOUDY    53  51  92 NE8       29.84R
STILLWATER     CLOUDY    54  48  80 NE9       29.89S
GUTHRIE        LGT RAIN  52  49  89 NE12G23   29.85F
$$

OKZ008-013-054>072-270700-
NORTHEAST OKLAHOMA

CITY           SKY/WX    TMP DP  RH WIND       PRES   REMARKS
TULSA          CLOUDY    57  47  69 NE8       29.89R THUNDER
6HR MIN TEMP:  56; 6HR MAX TEMP:  64;

TULSA/JONES    CLOUDY    57  48  72 NE6       29.91R
PONCA CITY     LGT RAIN  53  48  83 NE13      29.95R
BARTLESVILLE   CLOUDY    54  46  74 NE7       29.93R
MUSKOGEE       LGT RAIN  59  51  75 E9        29.89R
$$

OKZ032-040>043-046>053-073>077-270700-
SOUTH CENTRAL/SOUTHEAST OKLAHOMA

CITY           SKY/WX    TMP DP  RH WIND       PRES   REMARKS
ARDMORE/DWNTWN CLOUDY    63  61  94 NE12      29.73R
MCALESTER      RAIN      63  61  93 N10       29.87R
$$




USA.gov is the U.S. government's official web portal to all federal, state and local government web resources and services.